TimeCDT,TemperatureF,Dew PointF,Humidity,Sea Level PressureIn,VisibilityMPH,Wind Direction,Wind SpeedMPH,Gust SpeedMPH,PrecipitationIn,Events,Conditions,WindDirDegrees,DateUTC
12:15 AM,68.2,58.6,71,30.18,10.0,Calm,Calm,-,N/A,,Overcast,0,2013-07-14 05:15:00
12:35 AM,68.0,59.0,73,30.20,10.0,South,3.5,-,N/A,,Overcast,170,2013-07-14 05:35:00
12:55 AM,67.5,59.2,75,30.20,10.0,SSE,3.5,-,N/A,,Overcast,160,2013-07-14 05:55:00
1:15 AM,67.1,59.4,76,30.20,10.0,South,5.8,-,N/A,,Overcast,170,2013-07-14 06:15:00
1:35 AM,66.6,59.0,77,30.20,10.0,South,3.5,-,N/A,,Overcast,180,2013-07-14 06:35:00
1:55 AM,66.6,58.3,75,30.20,10.0,South,4.6,-,N/A,,Overcast,190,2013-07-14 06:55:00
2:15 AM,65.8,57.2,74,30.20,10.0,South,5.8,-,N/A,,Mostly Cloudy,180,2013-07-14 07:15:00
2:35 AM,64.9,56.5,74,30.20,10.0,South,4.6,-,N/A,,Scattered Clouds,180,2013-07-14 07:35:00
2:55 AM,64.4,56.3,75,30.20,10.0,Calm,Calm,-,N/A,,Clear,0,2013-07-14 07:55:00
3:15 AM,64.2,56.3,75,30.19,10.0,Calm,Calm,-,N/A,,Scattered Clouds,0,2013-07-14 08:15:00
3:35 AM,63.9,56.3,76,30.19,10.0,Calm,Calm,-,N/A,,Mostly Cloudy,0,2013-07-14 08:35:00
3:55 AM,62.8,56.3,79,30.20,10.0,Calm,Calm,-,N/A,,Overcast,0,2013-07-14 08:55:00
4:15 AM,63.5,56.3,77,30.20,10.0,Calm,Calm,-,N/A,,Mostly Cloudy,0,2013-07-14 09:15:00
4:35 AM,62.1,55.9,80,30.21,10.0,Calm,Calm,-,N/A,,Scattered Clouds,0,2013-07-14 09:35:00
4:55 AM,61.2,55.8,82,30.21,10.0,Calm,Calm,-,N/A,,Clear,0,2013-07-14 09:55:00
5:15 AM,61.7,55.6,80,30.21,10.0,SSE,3.5,-,N/A,,Clear,160,2013-07-14 10:15:00
5:35 AM,60.4,55.0,82,30.22,10.0,Calm,Calm,-,N/A,,Clear,0,2013-07-14 10:35:00
5:55 AM,59.5,57.9,94,30.22,10.0,Calm,Calm,-,N/A,,Clear,0,2013-07-14 10:55:00
6:15 AM,61.0,58.3,91,30.22,10.0,Calm,Calm,-,N/A,,Clear,0,2013-07-14 11:15:00
6:35 AM,62.8,57.2,82,30.22,10.0,Calm,Calm,-,N/A,,Clear,0,2013-07-14 11:35:00
6:55 AM,63.7,56.3,77,30.22,10.0,Calm,Calm,-,N/A,,Clear,0,2013-07-14 11:55:00
7:15 AM,65.1,56.5,74,30.22,10.0,South,4.6,-,N/A,,Clear,170,2013-07-14 12:15:00
7:35 AM,66.9,56.5,69,30.22,10.0,SSW,3.5,-,N/A,,Clear,210,2013-07-14 12:35:00
7:55 AM,68.5,57.0,67,30.23,10.0,SW,5.8,-,N/A,,Clear,230,2013-07-14 12:55:00
8:15 AM,69.4,57.2,65,30.23,10.0,SW,6.9,-,N/A,,Clear,220,2013-07-14 13:15:00
8:35 AM,70.7,57.6,63,30.23,10.0,SW,5.8,-,N/A,,Clear,230,2013-07-14 13:35:00
8:55 AM,72.1,58.3,62,30.23,10.0,WSW,9.2,-,N/A,,Clear,240,2013-07-14 13:55:00
9:15 AM,73.4,57.9,58,30.23,10.0,SW,8.1,-,N/A,,Clear,220,2013-07-14 14:15:00
9:35 AM,74.1,57.6,56,30.23,10.0,SW,11.5,-,N/A,,Clear,230,2013-07-14 14:35:00
10:35 AM,77.0,58.1,52,30.25,10.0,WSW,15.0,-,N/A,,Clear,240,2013-07-14 15:35:00
11:15 AM,77.2,58.5,52,30.25,10.0,SW,12.7,-,N/A,,Clear,230,2013-07-14 16:15:00
11:55 AM,78.6,58.5,50,30.24,10.0,SW,10.4,17.3,N/A,,Clear,230,2013-07-14 16:55:00
12:15 PM,79.0,57.6,48,30.24,10.0,WSW,8.1,-,N/A,,Clear,250,2013-07-14 17:15:00
12:35 PM,79.9,58.1,47,30.24,10.0,West,6.9,-,N/A,,Clear,260,2013-07-14 17:35:00
1:15 PM,80.2,58.3,47,30.23,10.0,SW,6.9,10.4,N/A,,Scattered Clouds,230,2013-07-14 18:15:00
1:35 PM,81.3,57.9,45,30.23,10.0,SW,9.2,16.1,N/A,,Scattered Clouds,230,2013-07-14 18:35:00
1:55 PM,81.1,57.2,44,30.23,10.0,SW,9.2,-,N/A,,Scattered Clouds,230,2013-07-14 18:55:00
2:15 PM,81.5,56.8,43,30.23,10.0,SW,8.1,16.1,N/A,,Mostly Cloudy,230,2013-07-14 19:15:00
2:35 PM,80.4,57.0,45,30.23,10.0,SW,10.4,17.3,N/A,,Mostly Cloudy,220,2013-07-14 19:35:00
2:55 PM,83.3,59.2,44,30.23,10.0,SSW,6.9,-,N/A,,Mostly Cloudy,210,2013-07-14 19:55:00
3:15 PM,82.2,58.5,44,30.23,10.0,SW,10.4,16.1,N/A,,Mostly Cloudy,230,2013-07-14 20:15:00
3:35 PM,81.3,57.4,44,30.23,10.0,SW,9.2,-,N/A,,Scattered Clouds,230,2013-07-14 20:35:00
3:55 PM,82.6,56.8,41,30.22,10.0,WSW,10.4,17.3,N/A,,Scattered Clouds,240,2013-07-14 20:55:00
4:15 PM,81.5,56.1,42,30.23,10.0,SW,9.2,18.4,N/A,,Scattered Clouds,220,2013-07-14 21:15:00
4:35 PM,82.9,57.9,42,30.23,10.0,SSW,8.1,-,N/A,,Mostly Cloudy,210,2013-07-14 21:35:00
4:55 PM,81.9,56.1,41,30.23,10.0,SW,8.1,16.1,N/A,,Scattered Clouds,230,2013-07-14 21:55:00
5:15 PM,80.1,57.9,47,30.22,10.0,SW,6.9,-,N/A,,Scattered Clouds,230,2013-07-14 22:15:00
5:35 PM,81.7,57.0,43,30.22,10.0,SW,6.9,-,N/A,,Clear,230,2013-07-14 22:35:00
5:55 PM,81.3,57.0,43,30.22,10.0,South,5.8,-,N/A,,Clear,190,2013-07-14 22:55:00
6:15 PM,80.2,58.1,47,30.22,10.0,SW,5.8,-,N/A,,Clear,220,2013-07-14 23:15:00
6:35 PM,80.6,58.5,47,30.22,10.0,WSW,8.1,-,N/A,,Clear,250,2013-07-14 23:35:00
6:55 PM,79.5,59.2,50,30.22,10.0,SW,5.8,-,N/A,,Clear,230,2013-07-14 23:55:00
7:15 PM,79.0,59.5,51,30.23,10.0,SW,4.6,-,N/A,,Clear,230,2013-07-15 00:15:00
7:35 PM,76.5,60.4,58,30.23,10.0,WSW,3.5,-,N/A,,Clear,240,2013-07-15 00:35:00
7:55 PM,75.2,60.6,60,30.23,10.0,Calm,Calm,-,N/A,,Clear,0,2013-07-15 00:55:00
8:15 PM,73.0,60.8,65,30.23,10.0,Calm,Calm,-,N/A,,Clear,0,2013-07-15 01:15:00
8:35 PM,69.6,61.9,76,30.23,10.0,Calm,Calm,-,N/A,,Clear,0,2013-07-15 01:35:00
8:55 PM,68.2,61.7,80,30.24,10.0,Calm,Calm,-,N/A,,Clear,0,2013-07-15 01:55:00
9:15 PM,68.2,61.2,78,30.24,10.0,Calm,Calm,-,N/A,,Clear,0,2013-07-15 02:15:00
9:35 PM,67.3,61.7,82,30.25,10.0,Calm,Calm,-,N/A,,Clear,0,2013-07-15 02:35:00
9:55 PM,67.1,61.5,82,30.25,10.0,Calm,Calm,-,N/A,,Clear,0,2013-07-15 02:55:00
10:15 PM,66.0,60.8,83,30.25,10.0,Calm,Calm,-,N/A,,Clear,0,2013-07-15 03:15:00
10:35 PM,65.1,63.3,94,30.25,10.0,Calm,Calm,-,N/A,,Clear,0,2013-07-15 03:35:00
10:55 PM,65.3,64.0,96,30.25,10.0,Calm,Calm,-,N/A,,Clear,0,2013-07-15 03:55:00
11:15 PM,64.8,64.4,99,30.26,10.0,Calm,Calm,-,N/A,,Clear,0,2013-07-15 04:15:00
11:35 PM,63.3,62.8,98,30.26,7.0,Calm,Calm,-,N/A,,Clear,0,2013-07-15 04:35:00
11:55 PM,63.5,63.5,100,30.26,7.0,Calm,Calm,-,N/A,,Clear,0,2013-07-15 04:55:00